Change the Weather History Date:

Tuesday, May 6, 2014

  Actual Average Record
Temperature  
Mean Temperature 70 °F 65 °F  
Max Temperature 84 °F 77 °F 95 °F (1950)
Min Temperature 56 °F 53 °F 34 °F (1973)
Degree Days  
Heating Degree Days 0 3  
Month to date heating degree days 6 19  
Since 1 July heating degree days 3457 3208  
Cooling Degree Days 5 3  
Month to date cooling degree days 12 18  
Year to date cooling degree days 43 79  
Growing Degree Days 20 (Base 50)    
Moisture  
Dew Point 56 °F    
Average Humidity 61    
Maximum Humidity 80    
Minimum Humidity 42    
Precipitation  
Precipitation 0.00 in 0.10 in 2.32 in (1958)
Month to date precipitation T 0.55  
Year to date precipitation 15.25 14.31  
Sea Level Pressure  
Sea Level Pressure 29.92 in    
Wind  
Wind Speed 4 mph (ENE)    
Max Wind Speed 10 mph    
Max Gust Speed 14 mph    
Visibility 10 miles    
Events      
T = Trace of Precipitation, MM = Missing Value Source: NWS Daily Summary

Daily Weather History Graph

Daily Weather History Graph

Search for Another Location

Airport or City:

Trip Planner

Search our weather history database for the weather conditions in past years. The results will help you decide how hot, cold, wet, or windy it might be!

Date:

Astronomy

May. 06, 2014 Rise Set
Actual Time 6:17 AM EDT 8:06 PM EDT
Civil Twilight 5:49 AM EDT 8:34 PM EDT
Nautical Twilight 5:16 AM EDT 9:07 PM EDT
Astronomical Twilight 4:40 AM EDT 9:43 PM EDT
Moon 12:29 PM EDT (5/6) 1:26 AM EDT (5/6)
Length of Visible Light 14h 44m
Length of Day
13h 48m
Waxing Crescent, 46% of the Moon is Illuminated
May 6
Waxing Crescent
May 6
First Quarter
May 14
Full
May 21
Last Quarter
May 28
New

Hourly Weather History & Observations

Time (EDT) Temp. Heat Index Dew Point Humidity Pressure Visibility Wind Dir Wind Speed Gust Speed Precip Events Conditions
12:34 AM 59.0 °F - 51.8 °F 77% 29.89 in 10.0 mi NE 6.9 mph - N/A   Mostly Cloudy
12:51 AM 60.1 °F - 51.1 °F 72% 29.88 in 10.0 mi NE 4.6 mph - N/A   Overcast
1:51 AM 61.0 °F - 52.0 °F 72% 29.88 in 10.0 mi ENE 3.5 mph - N/A   Mostly Cloudy
2:51 AM 60.1 °F - 52.0 °F 75% 29.86 in 10.0 mi Calm Calm - N/A   Overcast
3:51 AM 59.0 °F - 51.1 °F 75% 29.86 in 10.0 mi North 3.5 mph - N/A   Mostly Cloudy
7:51 AM 59.0 °F - 51.8 °F 77% 29.93 in 10.0 mi NNE 4.6 mph - N/A   Mostly Cloudy
8:51 AM 61.0 °F - 53.1 °F 75% 29.94 in 10.0 mi NNW 3.5 mph - N/A   Mostly Cloudy
9:22 AM 62.6 °F - 53.6 °F 72% 29.96 in 10.0 mi Calm Calm - N/A   Mostly Cloudy
10:51 AM 64.9 °F - 55.9 °F 73% 29.95 in 10.0 mi Calm Calm - N/A   Mostly Cloudy
11:51 AM 70.0 °F - 57.0 °F 63% 29.95 in 10.0 mi Calm Calm - N/A   Mostly Cloudy
12:51 PM 72.0 °F - 55.9 °F 57% 29.94 in 10.0 mi Calm Calm - N/A   Mostly Cloudy
1:51 PM 77.0 °F - 57.9 °F 52% 29.92 in 10.0 mi Variable 3.5 mph - N/A   Mostly Cloudy
2:51 PM 80.1 °F 80.4 °F 57.0 °F 45% 29.91 in 10.0 mi Variable 4.6 mph - N/A   Scattered Clouds
3:51 PM 81.0 °F 80.8 °F 55.9 °F 42% 29.89 in 10.0 mi Calm Calm - N/A   Scattered Clouds
4:51 PM 82.9 °F 83.2 °F 60.1 °F 46% 29.89 in 10.0 mi NE 3.5 mph - N/A   Scattered Clouds
5:51 PM 82.9 °F 82.8 °F 59.0 °F 44% 29.88 in 10.0 mi East 5.8 mph - N/A   Scattered Clouds
6:51 PM 80.1 °F 80.6 °F 57.9 °F 47% 29.89 in 10.0 mi East 9.2 mph - N/A   Scattered Clouds
7:51 PM 77.0 °F - 57.9 °F 52% 29.91 in 10.0 mi East 6.9 mph - N/A   Scattered Clouds
8:51 PM 73.0 °F - 59.0 °F 61% 29.94 in 10.0 mi East 6.9 mph - N/A   Scattered Clouds
9:51 PM 71.1 °F - 59.0 °F 66% 29.96 in 10.0 mi East 6.9 mph - N/A   Scattered Clouds
10:51 PM 69.1 °F - 59.0 °F 70% 29.99 in 10.0 mi East 5.8 mph - N/A   Partly Cloudy
11:51 PM 66.9 °F - 57.9 °F 73% 29.99 in 10.0 mi East 8.1 mph - N/A   Partly Cloudy